Content
SEND FEEDBACK

Daily
Averages
Monthly
Summary
Russia

USSURIYSK, RUSSIA


Home > Europe > Russia
Elevation: 151 feet     Latitude: 43 48N     Longitude: 132 00E

WEATHER
 
SELECT A DAY
Number of Records: 210,837;   Date Range: 7/1/96 - 7/7/14
 
SHARE

PRINT THIS DATA

[ ← Previous Day ]
WEATHER ALMANAC - JANUARY 31, 2013
[ Next Day → ]
[ °C ]   °F
Weather ElementAverageHighLow
Temperature21.6 °F33.8 °F (5:00 pm)1.4 °F (12:30 am)
Dewpoint17.4 °F30.2 °F (10:00 pm)-4 °F (12:30 am)
Humidity83.7 %99 % (11:00 am)74 % (1:00 pm)
Barometer30.46 in30.51 in (12:30 am)30.39 in (10:30 pm)
Wind Speed3.2 mph22.4 mph (11:00 am)
Weather ElementAverage
Visibility3.6 mi
Wind DirectionNNE (36.5 °)

Weather ElementTotal
Precipitation---
Heating Degree Days47.4 (Base 65)
Averaged from 51 records on January 31, 2013
WEATHER CONDITIONS BREAKOUT
WIND DIRECTION BREAKOUT
WEATHER BY HOUR - JANUARY 31, 2013
[ °C ]   °F
Local TimeTemperatureDewpointHumidityBarometerVisibilityWind DirectionWind SpeedGust SpeedPrecipitationEventsConditions
12:30 AM1.4 °F-4.0 °F78 %30.51 in6.2 miCalmMostly Cloudy
1:00 AM1.4 °F-2.2 °F85 %30.51 in6.2 miVariable4.5 mphMostly Cloudy
1:30 AM1.4 °F-2.2 °F85 %30.48 in3.1 miENE (70°)4.5 mphSmoke
2:00 AM1.4 °F-2.2 °F85 %30.48 in3.1 miVariable4.5 mphSmoke
2:30 AM5.0 °F1.4 °F85 %30.48 in3.1 miCalmSmoke
3:00 AM6.8 °F1.4 °F79 %30.48 in3.1 miVariable4.5 mphSmoke
3:30 AM6.8 °F3.2 °F85 %30.48 in3.1 miVariable2.2 mphSmoke
4:00 AM8.6 °F3.2 °F79 %30.48 in3.1 miCalmSmoke
4:30 AM10.4 °F5.0 °F79 %30.48 in3.1 miVariable2.2 mphSmoke
5:00 AM19.0 °F17.0 °F86 %30.50 in6.0 miSSE (150°)11.2 mphOvercast
5:00 AM12.2 °F6.8 °F79 %30.48 in3.1 miCalmSmoke
5:30 AM14.0 °F8.6 °F79 %30.48 in3.1 miVariable2.2 mphSmoke
6:00 AM14.0 °F8.6 °F79 %30.48 in3.1 miSW (230°)4.5 mphSmoke
6:30 AM14.0 °F8.6 °F79 %30.48 in3.1 miCalmSmoke
7:00 AM14.0 °F8.6 °F79 %30.48 in3.1 miVariable2.2 mphSmoke
7:30 AM14.0 °F10.4 °F86 %30.48 in3.1 miVariable2.2 mphSmoke
8:00 AM15.8 °F10.4 °F79 %30.45 in3.1 miVariable2.2 mphSmoke
8:30 AM15.8 °F12.2 °F86 %30.45 in3.1 miVariable2.2 mphSmoke
9:00 AM15.8 °F12.2 °F86 %30.48 in3.1 miCalmSmoke
9:30 AM17.6 °F12.2 °F79 %30.48 in3.1 miCalmSmoke
10:00 AM17.6 °F14.0 °F86 %30.48 in3.1 miCalmSmoke
10:30 AM19.4 °F14.0 °F80 %30.48 in3.1 miCalmSmoke
11:00 AM24.0 °F24.0 °F99 %30.48 in6.0 miSE (140°)22.4 mphSnowLight Snow
11:00 AM19.4 °F15.8 °F86 %30.48 in3.1 miCalmSmoke
11:30 AM19.4 °F15.8 °F86 %30.48 in3.1 miCalmSmoke
12:00 PM21.2 °F17.6 °F86 %30.48 in3.1 miCalmSmoke
12:30 PM23.0 °F17.6 °F80 %30.51 in3.1 miCalmSmoke
1:00 PM24.8 °F17.6 °F74 %30.48 in3.1 miCalmSmoke
1:30 PM26.6 °F19.4 °F74 %30.48 in3.1 miVariable2.2 mphSmoke
2:00 PM28.4 °F23.0 °F80 %30.48 in3.1 miVariable4.5 mphHaze
2:30 PM30.2 °F24.8 °F80 %30.45 in3.1 miVariable4.5 mphHaze
3:00 PM30.2 °F24.8 °F80 %30.45 in3.1 miEast (100°)4.5 mphHaze
3:30 PM32.0 °F26.6 °F80 %30.45 in3.1 miEast (100°)4.5 mphHaze
4:00 PM32.0 °F26.6 °F80 %30.42 in6.2 miESE (110°)6.7 mphOvercast
4:30 PM32.0 °F26.6 °F80 %30.42 in6.2 miVariable4.5 mphOvercast
5:00 PM28.0 °F28.0 °F97 %30.44 in6.0 miSE (140°)13.4 mphPartly Cloudy
5:00 PM33.8 °F28.4 °F81 %30.42 in6.2 miVariable2.2 mphOvercast
5:30 PM33.8 °F28.4 °F81 %30.42 in6.2 miCalmOvercast
6:00 PM33.8 °F28.4 °F81 %30.42 in6.2 miCalmOvercast
6:30 PM33.8 °F28.4 °F81 %30.42 in3.1 miCalmHaze
7:00 PM33.8 °F28.4 °F81 %30.42 in3.1 miCalmHaze
7:30 PM33.8 °F28.4 °F81 %30.42 in3.1 miCalmHaze
8:00 PM32.0 °F28.4 °F87 %30.42 in3.1 miCalmOvercast
8:30 PM32.0 °F28.4 °F87 %30.42 in3.1 miCalmOvercast
9:00 PM32.0 °F28.4 °F87 %30.42 in3.1 miESE (120°)6.7 mphOvercast
9:30 PM32.0 °F28.4 °F87 %30.42 in3.1 miSE (130°)6.7 mphOvercast
10:00 PM32.0 °F30.2 °F93 %30.42 in2.5 miESE (120°)6.7 mphOvercast
10:30 PM32.0 °F30.2 °F93 %30.39 in2.5 miSSE (160°)6.7 mphOvercast
11:00 PM29.0 °F29.0 °F98 %30.42 in0.0 miSSE (150°)11.2 mphFogHeavy Fog
11:00 PM32.0 °F30.2 °F93 %30.39 in2.5 miSE (140°)4.5 mphOvercast
11:30 PM30.2 °F28.4 °F93 %30.39 in1.9 miVariable4.5 mphOvercast
Hourly data recorded from UHWW, located miles away from Ussuriysk, Russia







STORIES FROM OUR PARTNERS